STARLINK-32455

Last updated on Thu Nov 21 2024 00:02:04 GMT+0000 (Coordinated Universal Time)

1 61632U 24191M 24325.58335648 .00043871 00000+0 10524-2 0 9999 2 61632 42.9995 329.7936 0001849 283.9675 34.9375 15.40672147 5596
UTC large
Height (km)
Speed (km/s)
/
Latitude / Longitude
Inclination (degrees)
Orbital Period (minutes)
Azimuth
Elevation
Range (km)
Doppler Factor

Next 0 passes for location: London (51.5072 / 0.1276)

Sorry there are no passes over London.